Weather History for Wooster, OH

Change the Weather History Date:

Tuesday, August 6, 2013

  Actual Average Record
Temperature  
Mean Temperature 66 °F -  
Max Temperature 79 °F 78 °F 88 °F (2001)
Min Temperature 55 °F 57 °F 46 °F (1997)
Cooling Degree Days 2    
Growing Degree Days 16 (Base 50)    
Moisture  
Dew Point 58 °F    
Average Humidity 80    
Maximum Humidity 100    
Minimum Humidity 52    
Precipitation  
Precipitation 0.00 in - - ()
Sea Level Pressure  
Sea Level Pressure 30.01 in    
Wind  
Wind Speed 2 mph (South)    
Max Wind Speed 10 mph    
Max Gust Speed -    
Visibility 7 miles    
Events      
Averages and records for this station are not official NWS values.
T = Trace of Precipitation, MM = Missing Value Source: NWS Daily Summary

Daily Weather History Graph

Daily Weather History Graph

Search for Another Location

Airport:

Trip Planner

Search our weather history database for the weather conditions in past years. The results will help you decide how hot, cold, wet, or windy it might be!

Date:

Astronomy

Aug. 06, 2013 Rise Set
Actual Time 6:28 AM EDT 8:37 PM EDT
Civil Twilight 5:58 AM EDT 9:07 PM EDT
Nautical Twilight 5:21 AM EDT 9:44 PM EDT
Astronomical Twilight 4:40 AM EDT 10:24 PM EDT
Moon 6:19 AM EDT (8/6) 8:10 PM EDT (8/6)
Length of Visible Light 15h 08m
Length of Day
14h 08m
Waning Crescent, 0% of the Moon is Illuminated
Aug 6
Waning Crescent
Aug 6
New
Aug 14
First Quarter
Aug 20
Full
Aug 28
Last Quarter

Hourly Weather History & Observations

Time (EDT) Temp. Dew Point Humidity Pressure Visibility Wind Dir Wind Speed Gust Speed Precip Events Conditions
12:56 AM 57.9 °F 57.0 °F 97% 30.03 in 8.0 mi Calm Calm - N/A   Clear
1:22 AM 57.2 °F 55.4 °F 94% 30.04 in 1.5 mi Calm Calm - N/A   Clear
1:26 AM 57.2 °F 55.4 °F 94% 30.04 in 0.8 mi Calm Calm - N/A   Clear
1:32 AM 57.2 °F 55.4 °F 94% 30.04 in 1.2 mi Calm Calm - N/A   Clear
1:40 AM 57.2 °F 55.4 °F 94% 30.04 in 2.0 mi Calm Calm - N/A   Clear
1:52 AM 57.2 °F 55.4 °F 94% 30.04 in 7.0 mi Calm Calm - N/A   Clear
1:56 AM 57.0 °F 55.9 °F 96% 30.03 in 7.0 mi Calm Calm - N/A   Clear
2:37 AM 55.4 °F 55.4 °F 100% 30.03 in 2.5 mi Calm Calm - N/A   Partly Cloudy
2:44 AM 55.4 °F 55.4 °F 100% 30.03 in 4.0 mi Calm Calm - N/A   Scattered Clouds
2:56 AM 57.0 °F 55.9 °F 96% 30.02 in 4.0 mi Calm Calm - N/A   Mostly Cloudy
3:56 AM 57.0 °F 55.0 °F 93% 30.02 in 5.0 mi Calm Calm - N/A   Mostly Cloudy
4:56 AM 57.9 °F 57.0 °F 97% 30.03 in 6.0 mi Calm Calm - N/A   Overcast
5:56 AM 59.0 °F 57.0 °F 93% 30.03 in 6.0 mi Calm Calm - N/A   Overcast
6:56 AM 55.9 °F 54.0 °F 93% 30.01 in 4.0 mi Calm Calm - N/A   Partly Cloudy
7:56 AM 61.0 °F 57.9 °F 90% 30.02 in 6.0 mi Calm Calm - N/A   Partly Cloudy
8:56 AM 64.9 °F 57.0 °F 75% 30.04 in 10.0 mi SSW 5.8 mph - N/A   Clear
9:56 AM 69.1 °F 57.0 °F 65% 30.04 in 10.0 mi Variable 5.8 mph - N/A   Clear
10:56 AM 72.0 °F 55.9 °F 57% 30.02 in 10.0 mi South 6.9 mph - N/A   Clear
11:56 AM 73.9 °F 57.9 °F 57% 30.01 in 10.0 mi South 8.1 mph - N/A   Scattered Clouds
12:56 PM 75.0 °F 59.0 °F 57% 30.01 in 10.0 mi Variable 6.9 mph - N/A   Mostly Cloudy
1:56 PM 77.0 °F 60.1 °F 56% 30.00 in 10.0 mi Variable 5.8 mph - N/A   Clear
2:56 PM 77.0 °F 57.9 °F 52% 29.99 in 10.0 mi Variable 6.9 mph - N/A   Partly Cloudy
3:56 PM 78.1 °F 60.1 °F 54% 29.99 in 10.0 mi South 10.4 mph - N/A   Mostly Cloudy
4:56 PM 75.9 °F 59.0 °F 56% 29.98 in 10.0 mi South 4.6 mph - N/A   Partly Cloudy
5:56 PM 75.9 °F 59.0 °F 56% 29.98 in 10.0 mi South 6.9 mph - N/A   Mostly Cloudy
6:56 PM 75.9 °F 60.1 °F 58% 29.98 in 10.0 mi South 5.8 mph - N/A   Clear
7:56 PM 73.0 °F 60.1 °F 64% 29.98 in 10.0 mi South 4.6 mph - N/A   Clear
8:56 PM 66.9 °F 62.1 °F 84% 29.97 in 8.0 mi South 3.5 mph - N/A   Clear
9:56 PM 64.0 °F 61.0 °F 90% 29.98 in 10.0 mi Calm Calm - 0.00 in   Clear
10:56 PM 64.0 °F 60.1 °F 87% 29.97 in 10.0 mi Calm Calm - N/A   Clear
11:56 PM 62.1 °F 59.0 °F 90% 29.97 in 8.0 mi Calm Calm - N/A   Clear